Sexton Summit, OR

9:29 AM PDT on April 19, 2018 (GMT -0700)
Sexton Summit

Weather History for KSXT - November, 2012

Change the Weather History Date:

Saturday, November 17, 2012

  Actual Average Record
Temperature  
Mean Temperature 37 °F -  
Max Temperature 44 °F 42 °F 64 °F (2008)
Min Temperature 30 °F 34 °F 30 °F (2011)
Degree Days  
Heating Degree Days 28    
Moisture  
Dew Point 35 °F    
Average Humidity 94    
Maximum Humidity 100    
Minimum Humidity 79    
Precipitation  
Precipitation 0.45 in - - ()
Sea Level Pressure  
Sea Level Pressure 29.74 in    
Wind  
Wind Speed 14 mph (South)    
Max Wind Speed 20 mph    
Max Gust Speed 25 mph    
Visibility 2 miles    
Events Fog , Rain , Snow    
Averages and records for this station are not official NWS values.
T = Trace of Precipitation, MM = Missing Value Source: NWS Daily Summary

Daily Weather History Graph

Daily Weather History Graph

Search for Another Location

Airport or City:

Astronomy

Nov. 17, 2012 Rise Set
Actual Time 7:08 AM PST 4:48 PM PST
Civil Twilight 6:37 AM PST 5:19 PM PST
Nautical Twilight 6:03 AM PST 5:53 PM PST
Astronomical Twilight 5:29 AM PST 6:26 PM PST
Moon 10:57 AM PST (11/17) 9:05 PM PST (11/17)
Length of Visible Light 10h 41m
Length of Day
9h 40m
Waxing Crescent, 21% of the Moon is Illuminated
Nov 17
Waxing Crescent
Nov 20
First Quarter
Nov 28
Full
Dec 6
Last Quarter
Dec 13
New

Hourly Weather History & Observations

Time (PST) Temp. Windchill Dew Point Humidity Pressure Visibility Wind Dir Wind Speed Gust Speed Precip Events Conditions
12:42 AM 42.8 °F 35.4 °F 37.4 °F 81% 29.75 in 10.0 mi SSE 15.0 mph - 0.00 in Rain Light Rain
12:56 AM 43.0 °F 35.7 °F 37.0 °F 80% 29.73 in 10.0 mi SSE 15.0 mph - 0.00 in   Overcast
1:56 AM 41.0 °F 34.3 °F 37.0 °F 86% 29.73 in 10.0 mi SSE 11.5 mph - 0.01 in Rain Light Rain
2:48 AM 42.8 °F 37.0 °F 37.4 °F 81% 29.72 in 10.0 mi SE 10.4 mph - 0.00 in Rain Light Rain
2:56 AM 42.1 °F 35.2 °F 37.9 °F 85% 29.70 in 10.0 mi SSE 12.7 mph - 0.00 in   Overcast
3:26 AM 41.0 °F 34.3 °F 37.4 °F 87% 29.71 in 10.0 mi SSE 11.5 mph - 0.00 in Rain Light Rain
3:38 AM 39.2 °F 30.8 °F 37.4 °F 93% 29.70 in 7.0 mi South 15.0 mph - 0.00 in Rain Light Rain
3:56 AM 41.0 °F 33.5 °F 39.0 °F 93% 29.69 in 10.0 mi South 13.8 mph - 0.00 in   Overcast
4:13 AM 42.8 °F 35.8 °F 39.2 °F 87% 29.69 in 1.5 mi South 13.8 mph - N/A   Overcast
4:16 AM 42.8 °F 35.8 °F 41.0 °F 93% 29.69 in 0.8 mi South 13.8 mph - N/A   Overcast
4:26 AM 42.8 °F 35.8 °F 41.0 °F 93% 29.69 in 0.2 mi South 13.8 mph - 0.00 in Fog , Rain Light Rain
4:45 AM 42.8 °F 35.4 °F 41.0 °F 93% 29.69 in 0.2 mi South 15.0 mph - 0.00 in Fog , Rain Light Rain
4:56 AM 42.1 °F 35.7 °F 41.0 °F 96% 29.68 in 1.0 mi South 11.5 mph - 0.00 in   Overcast
4:59 AM 42.8 °F 35.8 °F 41.0 °F 93% 29.69 in 2.5 mi South 13.8 mph - N/A   Overcast
5:14 AM 41.0 °F 32.8 °F 39.2 °F 93% 29.67 in 10.0 mi SSE 16.1 mph - N/A   Overcast
5:56 AM 44.1 °F 37.4 °F 37.9 °F 79% 29.65 in 10.0 mi SSE 13.8 mph - 0.00 in Rain Light Rain
6:56 AM 43.0 °F 36.0 °F 39.0 °F 86% 29.65 in 10.0 mi SSE 13.8 mph - 0.00 in Rain Light Rain
7:21 AM 41.0 °F 32.5 °F 39.2 °F 93% 29.66 in 1.2 mi SSW 17.3 mph 24.2 mph 0.02 in Rain Light Rain
7:25 AM 41.0 °F 32.8 °F 39.2 °F 93% 29.66 in 0.5 mi South 16.1 mph 25.3 mph 0.03 in Fog , Rain Rain
7:29 AM 41.0 °F 31.9 °F 39.2 °F 93% 29.65 in 0.2 mi SSE 19.6 mph 25.3 mph 0.03 in Fog , Rain Rain
7:40 AM 41.0 °F 33.5 °F 41.0 °F 100% 29.65 in 0.2 mi South 13.8 mph 23.0 mph 0.07 in Fog , Rain Rain
7:56 AM 42.1 °F 35.2 °F 41.0 °F 96% 29.66 in 0.2 mi SSW 12.7 mph 20.7 mph 0.07 in Fog , Rain Rain
8:20 AM 42.8 °F 35.4 °F 41.0 °F 93% 29.66 in 0.2 mi South 15.0 mph 23.0 mph 0.04 in Fog , Rain Rain
8:56 AM 42.1 °F 35.2 °F 42.1 °F 100% 29.67 in 0.2 mi South 12.7 mph 21.9 mph 0.09 in Fog , Rain Rain
9:56 AM 42.1 °F 34.5 °F 42.1 °F 100% 29.67 in 0.2 mi South 15.0 mph 25.3 mph 0.00 in Fog , Rain Rain
10:56 AM 43.0 °F 36.0 °F 43.0 °F 100% 29.66 in 0.2 mi South 13.8 mph 21.9 mph 0.01 in Fog , Rain Rain
11:56 AM 42.1 °F 34.9 °F 42.1 °F 100% 29.62 in 0.2 mi South 13.8 mph 24.2 mph 0.00 in Fog , Rain Light Rain
12:56 PM 37.0 °F 28.1 °F 37.0 °F 100% 29.64 in 0.2 mi NW 15.0 mph 24.2 mph 0.05 in Fog , Rain Rain
1:56 PM 33.1 °F 25.5 °F 33.1 °F 100% 29.73 in 0.2 mi West 9.2 mph - 0.07 in Fog , Snow Light Snow
2:11 PM 32.0 °F 24.8 °F 32.0 °F 100% 29.71 in 0.2 mi West 8.1 mph 24.2 mph 0.06 in Fog , Snow Heavy Snow
2:56 PM 30.9 °F 23.5 °F 30.9 °F 100% 29.75 in 0.2 mi SW 8.1 mph - 0.12 in Fog , Snow Snow
3:48 PM 30.2 °F 20.2 °F 30.2 °F 100% 29.71 in 0.2 mi SSW 12.7 mph 18.4 mph 0.03 in Fog Light Freezing Fog
3:56 PM 30.9 °F 20.7 °F 30.0 °F 96% 29.75 in 0.2 mi SSW 13.8 mph 23.0 mph 0.03 in Fog , Rain Light Freezing Rain
4:56 PM 30.0 °F 20.0 °F 30.0 °F 100% 29.79 in 0.2 mi South 12.7 mph 21.9 mph 0.00 in Fog , Rain Light Freezing Rain
5:56 PM 30.9 °F 20.2 °F 30.0 °F 96% 29.79 in 0.2 mi South 15.0 mph 20.7 mph 0.00 in Fog , Rain Light Freezing Rain
6:54 PM 30.2 °F 20.8 °F 30.2 °F 100% 29.79 in 0.5 mi South 11.5 mph - 0.00 in Fog , Rain Light Freezing Rain
6:56 PM 30.9 °F 21.2 °F 30.0 °F 96% 29.82 in 0.5 mi South 12.7 mph - 0.00 in Fog , Rain Light Freezing Rain
7:06 PM 30.2 °F 21.3 °F 30.2 °F 100% 29.80 in 0.2 mi South 10.4 mph - 0.00 in Fog Light Freezing Fog
7:18 PM 30.2 °F 21.3 °F 30.2 °F 100% 29.80 in 0.2 mi South 10.4 mph - 0.00 in Fog Light Freezing Fog
7:44 PM 30.2 °F 20.8 °F 30.2 °F 100% 29.81 in 0.5 mi SSW 11.5 mph - 0.00 in Fog Light Freezing Fog
7:56 PM 30.9 °F 21.7 °F 30.0 °F 96% 29.84 in 0.5 mi South 11.5 mph - 0.00 in Fog Light Freezing Fog
8:05 PM 30.2 °F 18.9 °F 30.2 °F 100% 29.81 in 0.5 mi South 16.1 mph - N/A Fog Light Freezing Fog
8:16 PM 30.2 °F 20.2 °F 30.2 °F 100% 29.81 in 0.2 mi South 12.7 mph - N/A Fog Light Freezing Fog
8:37 PM 32.0 °F 22.1 °F 30.2 °F 93% 29.82 in 0.2 mi South 13.8 mph - 0.00 in Fog Fog
8:48 PM 32.0 °F 21.2 °F 30.2 °F 93% 29.82 in 0.2 mi South 16.1 mph - 0.00 in Fog , Rain Light Freezing Rain
8:56 PM 32.0 °F 21.2 °F 30.9 °F 96% 29.86 in 0.5 mi South 16.1 mph - 0.00 in Fog , Rain Light Freezing Rain
9:07 PM 32.0 °F 23.0 °F 30.2 °F 93% 29.83 in 0.5 mi South 11.5 mph - 0.00 in Fog Fog
9:15 PM 32.0 °F 22.5 °F 30.2 °F 93% 29.83 in 0.2 mi South 12.7 mph 18.4 mph 0.00 in Fog Fog
9:56 PM 32.0 °F 21.6 °F 30.9 °F 96% 29.88 in 0.2 mi South 15.0 mph - 0.00 in Fog Fog
10:56 PM 32.0 °F 22.5 °F 30.9 °F 96% 29.88 in 0.2 mi South 12.7 mph - N/A Fog Fog
11:31 PM 32.0 °F 22.1 °F 30.2 °F 93% 29.85 in 0.2 mi South 13.8 mph 21.9 mph N/A Fog Fog
11:56 PM 32.0 °F 22.1 °F 30.9 °F 96% 29.88 in 0.2 mi South 13.8 mph - 0.00 in Fog , Snow Light Snow